Location: Fort Worth
(32.7555°N, 97.3308°W)
Time: 03:41:53
(UTC-06:00)

ISS - Visible Passes

Search period start: 16 January 2019 00:00
Search period end: 26 January 2019 00:00
Orbit: 404 x 407 km, 51.6° (Epoch: 16 January)

Date Brightness Start Highest point End Pass type
(mag) Time Alt. Az. Time Alt. Az. Time Alt. Az.
16 Jan -1.4 05:35:40 18° SSE 05:35:40 18° SSE 05:36:40 10° SSE visible
19 Jan -2.9 19:31:31 10° SW 19:33:50 41° SSW 19:33:50 41° SSW visible
20 Jan -2.6 18:40:05 10° S 18:42:55 28° SE 18:44:32 18° E visible
20 Jan -0.4 20:16:47 10° W 20:17:15 12° W 20:17:15 12° W visible
21 Jan -2.8 19:24:15 10° WSW 19:27:21 40° NW 19:27:52 37° NNW visible
22 Jan -3.9 18:32:07 10° SW 18:35:23 90° ESE 18:38:24 12° NE visible
23 Jan -1.4 19:17:49 10° WNW 19:20:06 17° NW 19:21:32 14° N visible
24 Jan -2.3 18:25:01 10° WSW 18:27:58 31° NW 18:30:57 10° NNE visible
